Location: Napier
(39.4830°S, 176.9170°E)
Time: 08:52:05
(UTC+13:00)

ISS - Visible Passes

Search period start: 28 February 2021 00:00
Search period end: 10 March 2021 00:00
Orbit: 417 x 422 km, 51.6° (Epoch: 27 February)

Date Brightness Start Highest point End Pass type
(mag) Time Alt. Az. Time Alt. Az. Time Alt. Az.
28 Feb -2.4 21:39:10 10° SW 21:42:15 29° SSE 21:42:20 29° SSE visible
01 Mar -1.9 20:51:53 10° SSW 20:54:38 21° SSE 20:56:40 14° ESE visible
01 Mar -1.1 22:28:17 10° WSW 22:29:37 21° WSW 22:29:37 21° WSW visible
02 Mar -3.6 21:40:48 10° SW 21:44:00 69° S 21:44:00 69° S visible
03 Mar -3.1 20:53:24 10° SW 20:56:45 44° SSE 20:58:26 24° E visible
03 Mar -0.7 22:30:44 10° W 22:31:24 13° W 22:31:24 13° W visible
04 Mar -2.5 21:42:50 10° WSW 21:45:54 35° NW 21:45:54 35° NW visible
05 Mar -3.4 20:55:11 10° WSW 20:58:36 63° NW 21:00:30 24° NE visible
06 Mar -3.7 20:07:41 10° SW 20:11:08 74° SE 20:14:33 10° ENE visible
06 Mar -0.9 21:46:13 10° WNW 21:47:30 12° NW 21:48:10 11° NW visible
07 Mar -1.4 20:57:36 10° W 21:00:12 20° NW 21:02:47 10° N visible
08 Mar -2.2 20:09:40 10° WSW 20:12:51 35° NW 20:15:58 10° NNE visible
